• In Schweiz
  • Länderverzeichnis
  • Für 7 Tage
  • Wassertemperatur
  • Satellitenkarten
  • Wetterkarte
  • Widgets
  • user-avatar
    Anmelden

    Stündliche Wetter Serhiivs'ke

    Heute, 20 Juli, Freitag

    Zeit Temperatur Niederschläge Wind Luftdruck Luftfeuchtigkeit
    00:00 +23°C° 0 mm 1 m/S 742 mmHg 77%
    01:00 +21°C° 0 mm 2 m/S 742 mmHg 80%
    02:00 +21°C° 0 mm 2 m/S 742 mmHg 83%
    03:00 +21°C° 0 mm 2 m/S 742 mmHg 85%
    04:00 +20°C° 0 mm 2 m/S 742 mmHg 87%
    05:00 +20°C° 0 mm 2 m/S 742 mmHg 88%
    06:00 +23°C° 0 mm 2 m/S 743 mmHg 82%
    07:00 +24°C° 0 mm 2 m/S 743 mmHg 76%
    08:00 +26°C° 0 mm 2 m/S 743 mmHg 70%
    09:00 +27°C° 0,2 mm 3 m/S 743 mmHg 63%
    10:00 +28°C° 0,2 mm 3 m/S 743 mmHg 57%
    11:00 +29°C° 0,2 mm 4 m/S 743 mmHg 51%
    12:00 +30°C° 0 mm 4 m/S 743 mmHg 49%
    13:00 +30°C° 0 mm 4 m/S 743 mmHg 48%
    14:00 +30°C° 0 mm 4 m/S 742 mmHg 49%
    15:00 +30°C° 0,1 mm 5 m/S 742 mmHg 50%
    16:00 +30°C° 0,1 mm 5 m/S 743 mmHg 51%
    17:00 +29°C° 0,1 mm 5 m/S 743 mmHg 53%
    18:00 +28°C° 0,2 mm 4 m/S 743 mmHg 60%
    19:00 +26°C° 0,2 mm 3 m/S 743 mmHg 68%
    20:00 +24°C° 0,2 mm 3 m/S 743 mmHg 75%
    21:00 +24°C° 0 mm 3 m/S 743 mmHg 79%
    22:00 +22°C° 0 mm 3 m/S 743 mmHg 82%
    23:00 +21°C° 0 mm 3 m/S 743 mmHg 85%

    Morgen, 21 Juli, Samstag

    Zeit Temperatur Niederschläge Wind Luftdruck Luftfeuchtigkeit
    00:00 +21°C° 0 mm 3 m/S 744 mmHg 87%
    01:00 +21°C° 0 mm 3 m/S 744 mmHg 89%
    02:00 +20°C° 0 mm 3 m/S 744 mmHg 91%
    03:00 +20°C° 0 mm 3 m/S 744 mmHg 92%
    04:00 +20°C° 0 mm 3 m/S 744 mmHg 92%
    05:00 +20°C° 0 mm 3 m/S 744 mmHg 93%
    06:00 +21°C° 0 mm 3 m/S 744 mmHg 86%
    07:00 +24°C° 0 mm 3 m/S 744 mmHg 80%
    08:00 +25°C° 0 mm 4 m/S 745 mmHg 74%
    09:00 +27°C° 0 mm 4 m/S 745 mmHg 68%
    10:00 +28°C° 0 mm 4 m/S 745 mmHg 62%
    11:00 +29°C° 0 mm 4 m/S 745 mmHg 56%
    12:00 +30°C° 0 mm 4 m/S 745 mmHg 54%
    13:00 +30°C° 0 mm 5 m/S 744 mmHg 52%
    14:00 +32°C° 0 mm 5 m/S 744 mmHg 50%
    15:00 +32°C° 0,2 mm 5 m/S 744 mmHg 52%
    16:00 +30°C° 0,2 mm 5 m/S 744 mmHg 54%
    17:00 +30°C° 0,2 mm 5 m/S 744 mmHg 55%
    18:00 +28°C° 0 mm 4 m/S 744 mmHg 62%
    19:00 +27°C° 0 mm 4 m/S 745 mmHg 69%
    20:00 +25°C° 0 mm 3 m/S 745 mmHg 76%
    21:00 +24°C° 0 mm 3 m/S 745 mmHg 79%
    22:00 +24°C° 0 mm 3 m/S 745 mmHg 82%
    23:00 +22°C° 0 mm 3 m/S 745 mmHg 85%

    übermorgen, 22 Juli, Sonntag

    Zeit Temperatur Niederschläge Wind Luftdruck Luftfeuchtigkeit
    00:00 +22°C° 0 mm 3 m/S 745 mmHg 87%
    01:00 +21°C° 0 mm 3 m/S 745 mmHg 89%
    02:00 +21°C° 0 mm 2 m/S 745 mmHg 91%
    03:00 +20°C° 0 mm 2 m/S 745 mmHg 91%
    04:00 +20°C° 0 mm 2 m/S 745 mmHg 92%
    05:00 +20°C° 0 mm 2 m/S 745 mmHg 92%
    06:00 +22°C° 0 mm 3 m/S 745 mmHg 84%
    07:00 +24°C° 0 mm 3 m/S 745 mmHg 76%
    08:00 +26°C° 0 mm 3 m/S 746 mmHg 67%
    09:00 +27°C° 0 mm 4 m/S 745 mmHg 61%
    10:00 +28°C° 0 mm 4 m/S 745 mmHg 56%
    11:00 +29°C° 0 mm 4 m/S 745 mmHg 50%
    12:00 +30°C° 0 mm 4 m/S 745 mmHg 47%
    13:00 +32°C° 0 mm 4 m/S 745 mmHg 45%
    14:00 +32°C° 0 mm 4 m/S 744 mmHg 43%
    15:00 +32°C° 0 mm 4 m/S 744 mmHg 44%
    16:00 +32°C° 0 mm 4 m/S 744 mmHg 46%
    17:00 +30°C° 0 mm 4 m/S 744 mmHg 48%
    18:00 +29°C° 0 mm 4 m/S 744 mmHg 54%
    19:00 +27°C° 0 mm 3 m/S 744 mmHg 60%
    20:00 +25°C° 0 mm 3 m/S 744 mmHg 67%
    21:00 +25°C° 0 mm 2 m/S 744 mmHg 70%
    22:00 +24°C° 0 mm 2 m/S 744 mmHg 72%
    23:00 +23°C° 0 mm 2 m/S 744 mmHg 75%

    23 Juli, Montag

    Zeit Temperatur Niederschläge Wind Luftdruck Luftfeuchtigkeit
    00:00 +23°C° 0 mm 2 m/S 744 mmHg 78%
    01:00 +21°C° 0 mm 2 m/S 744 mmHg 80%
    02:00 +21°C° 0 mm 2 m/S 744 mmHg 82%
    03:00 +20°C° 0 mm 2 m/S 744 mmHg 84%
    04:00 +20°C° 0 mm 2 m/S 744 mmHg 86%
    05:00 +20°C° 0 mm 2 m/S 744 mmHg 88%
    06:00 +23°C° 0 mm 2 m/S 744 mmHg 81%
    07:00 +24°C° 0 mm 2 m/S 744 mmHg 75%
    08:00 +26°C° 0 mm 3 m/S 744 mmHg 68%
    09:00 +27°C° 0 mm 3 m/S 744 mmHg 62%
    10:00 +28°C° 0 mm 3 m/S 744 mmHg 56%
    11:00 +29°C° 0 mm 3 m/S 744 mmHg 50%
    12:00 +30°C° 0 mm 3 m/S 744 mmHg 48%
    13:00 +31°C° 0 mm 3 m/S 743 mmHg 46%
    14:00 +31°C° 0 mm 3 m/S 743 mmHg 43%
    15:00 +31°C° 0 mm 3 m/S 743 mmHg 45%
    16:00 +30°C° 0 mm 3 m/S 743 mmHg 46%
    17:00 +30°C° 0 mm 3 m/S 743 mmHg 48%
    18:00 +29°C° 0 mm 2 m/S 743 mmHg 52%
    19:00 +27°C° 0 mm 2 m/S 743 mmHg 57%
    20:00 +26°C° 0 mm 1 m/S 743 mmHg 61%
    21:00 +25°C° 0,5 mm 1 m/S 743 mmHg 66%
    22:00 +24°C° 0,5 mm 1 m/S 743 mmHg 70%
    23:00 +23°C° 0,5 mm 1 m/S 743 mmHg 74%

    24 Juli, Dienstag

    Zeit Temperatur Niederschläge Wind Luftdruck Luftfeuchtigkeit
    00:00 +23°C° 0,1 mm 1 m/S 743 mmHg 76%
    01:00 +22°C° 0,1 mm 1 m/S 743 mmHg 78%
    02:00 +22°C° 0,1 mm 1 m/S 743 mmHg 80%
    03:00 +22°C° 0 mm 1 m/S 743 mmHg 79%
    04:00 +20°C° 0 mm 0 m/S 743 mmHg 79%
    05:00 +20°C° 0 mm 0 m/S 743 mmHg 78%
    06:00 +22°C° 0 mm 0 m/S 743 mmHg 73%
    07:00 +25°C° 0 mm 1 m/S 743 mmHg 68%
    08:00 +26°C° 0 mm 1 m/S 744 mmHg 63%
    09:00 +28°C° 0,1 mm 1 m/S 744 mmHg 58%
    10:00 +29°C° 0,1 mm 1 m/S 743 mmHg 52%
    11:00 +31°C° 0,1 mm 2 m/S 743 mmHg 47%
    12:00 +31°C° 0 mm 2 m/S 743 mmHg 47%
    13:00 +31°C° 0 mm 3 m/S 743 mmHg 47%
    14:00 +31°C° 0 mm 3 m/S 743 mmHg 47%
    15:00 +31°C° 0 mm 3 m/S 743 mmHg 48%
    16:00 +31°C° 0 mm 3 m/S 743 mmHg 49%
    17:00 +31°C° 0 mm 3 m/S 743 mmHg 49%
    18:00 +29°C° 0,2 mm 3 m/S 743 mmHg 54%
    19:00 +28°C° 0,2 mm 2 m/S 743 mmHg 59%
    20:00 +26°C° 0,2 mm 1 m/S 743 mmHg 64%
    21:00 +26°C° 1,1 mm 1 m/S 743 mmHg 68%
    22:00 +25°C° 1,1 mm 1 m/S 743 mmHg 73%
    23:00 +24°C° 1,1 mm 1 m/S 744 mmHg 77%

    25 Juli, Mittwoch

    Zeit Temperatur Niederschläge Wind Luftdruck Luftfeuchtigkeit
    00:00 +24°C° 0,6 mm 1 m/S 744 mmHg 78%
    01:00 +23°C° 0,6 mm 1 m/S 744 mmHg 79%
    02:00 +23°C° 0,6 mm 1 m/S 744 mmHg 80%
    03:00 +23°C° 0,1 mm 1 m/S 744 mmHg 80%
    04:00 +23°C° 0,1 mm 1 m/S 744 mmHg 81%
    05:00 +23°C° 0,1 mm 1 m/S 744 mmHg 81%
    06:00 +24°C° 0 mm 1 m/S 744 mmHg 75%
    07:00 +26°C° 0 mm 1 m/S 744 mmHg 70%
    08:00 +27°C° 0 mm 1 m/S 745 mmHg 64%
    09:00 +28°C° 0 mm 1 m/S 745 mmHg 58%
    10:00 +30°C° 0 mm 2 m/S 745 mmHg 53%
    11:00 +31°C° 0 mm 2 m/S 745 mmHg 47%
    12:00 +32°C° 0,1 mm 2 m/S 744 mmHg 45%
    13:00 +32°C° 0,1 mm 2 m/S 744 mmHg 43%
    14:00 +34°C° 0,1 mm 2 m/S 744 mmHg 40%
    15:00 +34°C° 0 mm 2 m/S 744 mmHg 41%
    16:00 +34°C° 0 mm 2 m/S 744 mmHg 42%
    17:00 +32°C° 0 mm 2 m/S 744 mmHg 43%
    18:00 +31°C° 0 mm 2 m/S 744 mmHg 48%
    19:00 +30°C° 0 mm 2 m/S 745 mmHg 53%
    20:00 +28°C° 0 mm 2 m/S 745 mmHg 58%
    21:00 +27°C° 0 mm 2 m/S 745 mmHg 61%
    22:00 +26°C° 0 mm 2 m/S 745 mmHg 65%
    23:00 +25°C° 0 mm 2 m/S 745 mmHg 69%
    Mehr zeigen